This is the latest recevied weather packets stored in our database for station/object KC0SIQ-13. If no packets are shown the sender has not sent any weather packets the latest 10 day(s).
| Time | Temp. | Humidity | Pressure | Rain* | Wind** | Luminosity | Snow |
|---|---|---|---|---|---|---|---|
| 1777925739 | 16.11° C | 46% | 1007.6 hPa | 0 mm | - | 56 W/m² | - |
| 1777925437 | 16.11° C | 45% | 1007.6 hPa | 0 mm | - | 77 W/m² | - |
| 1777925133 | 16.11° C | 47% | 1007.5 hPa | 0 mm | - | 116 W/m² | - |
| 1777924830 | 16.11° C | 45% | 1007.5 hPa | 0 mm | - | 136 W/m² | - |
| 1777924526 | 15.56° C | 51% | 1007.5 hPa | 0 mm | - | 139 W/m² | - |
| 1777924223 | 16.11° C | 52% | 1007.4 hPa | 0 mm | - | 90 W/m² | - |
| 1777923919 | 16.67° C | 46% | 1007.4 hPa | 0 mm | - | 42 W/m² | - |
| 1777923615 | 16.67° C | 40% | 1007.3 hPa | 0 mm | - | 53 W/m² | - |
| 1777923312 | 17.22° C | 37% | 1007.3 hPa | 0 mm | - | 62 W/m² | - |
| 1777923010 | 18.33° C | 34% | 1006.9 hPa | 0 mm | - | 80 W/m² | - |
| 1777922709 | 18.89° C | 33% | 1006.4 hPa | 0 mm | - | 50 W/m² | - |
| 1777922407 | 18.89° C | 34% | 1006.3 hPa | 0 mm | - | 58 W/m² | - |
| 1777922104 | 19.44° C | 35% | 1006.1 hPa | 0 mm | - | 114 W/m² | - |
| 1777921799 | 18.89° C | 36% | 1006.1 hPa | 0 mm | - | 121 W/m² | - |
| 1777921495 | 19.44° C | 34% | 1006.1 hPa | 0 mm | - | 98 W/m² | - |
| 1777921191 | 19.44° C | 31% | 1006 hPa | 0 mm | - | 78 W/m² | - |
| 1777920889 | 20° C | 28% | 1005.9 hPa | 0 mm | - | 58 W/m² | - |
| 1777920585 | 20.56° C | 26% | 1005.9 hPa | 0 mm | - | 66 W/m² | - |
| 1777920281 | 21.67° C | 25% | 1005.7 hPa | 0 mm | - | 78 W/m² | - |
| 1777919977 | 21.11° C | 26% | 1005.6 hPa | 0 mm | - | 101 W/m² | - |
| 1777919674 | 21.11° C | 25% | 1005.4 hPa | 0 mm | - | 120 W/m² | - |
| 1777919372 | 21.11° C | 27% | 1005.5 hPa | 0 mm | - | 128 W/m² | - |
| 1777919069 | 21.11° C | 27% | 1005.5 hPa | 0 mm | - | 118 W/m² | - |
| 1777918766 | 21.11° C | 25% | 1005.7 hPa | 0 mm | - | 86 W/m² | - |
| 1777918463 | 21.67° C | 24% | 1005.6 hPa | 0 mm | - | 78 W/m² | - |
* Rain latest hour (hover to see other rain measurements)
** Current wind speed in m/s (hover to see current wind gust speed)